Time,TemperatureF,DewpointF,PressureIn,WindDirection,WindDirectionDegrees,WindSpeedMPH,WindSpeedGustMPH,Humidity,HourlyPrecipIn,Conditions,Clouds,dailyrainin,SoftwareType,DateUTC
2014-09-20 00:03:00,63.7,57.1,29.69,NNW,334,5.0,16.0,79,0.00,,CLR,0.00,VWS V14.00,2014-09-20 05:03:00,
2014-09-20 00:09:00,63.5,56.9,29.69,NW,308,10.0,16.0,79,0.00,,CLR,0.00,VWS V14.00,2014-09-20 05:09:00,
2014-09-20 00:14:00,63.2,56.6,29.69,North,358,8.0,15.0,79,0.00,,CLR,0.00,VWS V14.00,2014-09-20 05:14:00,
2014-09-20 00:19:00,63.0,56.4,29.69,NNW,329,0.0,15.0,79,0.00,,CLR,0.00,VWS V14.00,2014-09-20 05:19:00,
2014-09-20 00:24:00,62.7,56.5,29.69,NNW,347,5.0,17.0,80,0.00,,CLR,0.00,VWS V14.00,2014-09-20 05:24:00,
2014-09-20 00:29:00,62.4,56.2,29.70,NNW,346,5.0,17.0,80,0.00,,CLR,0.00,VWS V14.00,2014-09-20 05:29:00,
2014-09-20 00:34:00,62.2,56.0,29.69,NNW,340,7.0,13.0,80,0.00,,CLR,0.00,VWS V14.00,2014-09-20 05:34:00,
2014-09-20 00:39:00,61.9,55.7,29.70,NW,324,3.0,13.0,80,0.00,,CLR,0.00,VWS V14.00,2014-09-20 05:39:00,
2014-09-20 00:44:00,61.8,55.6,29.70,North,349,2.0,12.0,80,0.00,,CLR,0.00,VWS V14.00,2014-09-20 05:44:00,
2014-09-20 00:49:00,61.6,55.4,29.70,WNW,297,0.0,12.0,80,0.00,,CLR,0.00,VWS V14.00,2014-09-20 05:49:00,
2014-09-20 00:54:00,61.4,55.2,29.70,North,358,0.0,14.0,80,0.00,,CLR,0.00,VWS V14.00,2014-09-20 05:54:00,
2014-09-20 00:59:00,61.2,55.0,29.70,NW,323,10.0,14.0,80,0.00,,CLR,0.00,VWS V14.00,2014-09-20 05:59:00,
2014-09-20 01:04:00,61.0,54.8,29.71,NW,319,3.0,9.0,80,0.00,,CLR,0.00,VWS V14.00,2014-09-20 06:04:00,
2014-09-20 01:09:00,60.9,54.7,29.71,NNW,335,4.0,15.0,80,0.00,,CLR,0.00,VWS V14.00,2014-09-20 06:09:00,
2014-09-20 01:14:00,60.8,54.6,29.71,NNW,338,5.0,11.0,80,0.00,,CLR,0.00,VWS V14.00,2014-09-20 06:14:00,
2014-09-20 01:19:00,60.7,54.5,29.72,NNW,329,5.0,11.0,80,0.00,,CLR,0.00,VWS V14.00,2014-09-20 06:19:00,
2014-09-20 01:24:00,60.5,54.3,29.72,NW,326,4.0,11.0,80,0.00,,CLR,0.00,VWS V14.00,2014-09-20 06:24:00,
2014-09-20 01:29:00,60.4,54.2,29.72,NW,317,6.0,16.0,80,0.00,,CLR,0.00,VWS V14.00,2014-09-20 06:29:00,
2014-09-20 01:34:00,60.3,54.1,29.73,NNW,327,4.0,11.0,80,0.00,,CLR,0.00,VWS V14.00,2014-09-20 06:34:00,
2014-09-20 01:39:00,60.1,53.9,29.73,NNW,342,9.0,12.0,80,0.00,,CLR,0.00,VWS V14.00,2014-09-20 06:39:00,
2014-09-20 01:44:00,60.0,53.8,29.73,NNW,329,0.0,12.0,80,0.00,,CLR,0.00,VWS V14.00,2014-09-20 06:44:00,
2014-09-20 01:49:00,59.6,53.4,29.73,North,354,0.0,12.0,80,0.00,,CLR,0.00,VWS V14.00,2014-09-20 06:49:00,
2014-09-20 01:54:00,59.4,53.6,29.73,NNW,335,2.0,10.0,81,0.00,,CLR,0.00,VWS V14.00,2014-09-20 06:54:00,
2014-09-20 01:59:00,59.3,53.5,29.73,NNW,348,0.0,13.0,81,0.00,,CLR,0.00,VWS V14.00,2014-09-20 06:59:00,
2014-09-20 02:04:00,59.1,53.3,29.73,NNW,335,6.0,10.0,81,0.00,,CLR,0.00,VWS V14.00,2014-09-20 07:04:00,
2014-09-20 02:09:00,58.9,53.4,29.73,NNW,329,0.0,12.0,82,0.00,,CLR,0.00,VWS V14.00,2014-09-20 07:09:00,
2014-09-20 02:14:00,58.7,53.2,29.73,NNW,330,2.0,11.0,82,0.00,,CLR,0.00,VWS V14.00,2014-09-20 07:14:00,
2014-09-20 02:19:00,58.5,53.0,29.73,NNW,330,0.0,11.0,82,0.00,,CLR,0.00,VWS V14.00,2014-09-20 07:19:00,
2014-09-20 02:24:00,58.3,53.2,29.73,NNW,329,0.0,0.0,83,0.00,,CLR,0.00,VWS V14.00,2014-09-20 07:24:00,
2014-09-20 02:29:00,58.2,53.1,29.73,NW,316,0.0,0.0,83,0.00,,CLR,0.00,VWS V14.00,2014-09-20 07:29:00,
2014-09-20 02:34:00,58.2,53.4,29.74,NW,316,0.0,0.0,84,0.00,,CLR,0.00,VWS V14.00,2014-09-20 07:34:00,
2014-09-20 02:39:00,58.1,53.3,29.74,NW,316,0.0,0.0,84,0.00,,CLR,0.00,VWS V14.00,2014-09-20 07:39:00,
2014-09-20 02:44:00,58.0,53.2,29.74,NNW,333,0.0,0.0,84,0.00,,CLR,0.00,VWS V14.00,2014-09-20 07:44:00,
2014-09-20 02:49:00,57.9,53.1,29.74,NW,317,0.0,0.0,84,0.00,,CLR,0.00,VWS V14.00,2014-09-20 07:49:00,
2014-09-20 02:54:00,57.8,53.0,29.74,WNW,300,0.0,0.0,84,0.00,,CLR,0.00,VWS V14.00,2014-09-20 07:54:00,
2014-09-20 02:59:00,57.7,52.9,29.74,WNW,301,0.0,0.0,84,0.00,,CLR,0.00,VWS V14.00,2014-09-20 07:59:00,
2014-09-20 03:04:00,57.5,52.7,29.75,WNW,303,0.0,0.0,84,0.00,,CLR,0.00,VWS V14.00,2014-09-20 08:04:00,
2014-09-20 03:09:00,57.3,52.8,29.75,WNW,297,0.0,0.0,85,0.00,,CLR,0.00,VWS V14.00,2014-09-20 08:09:00,
2014-09-20 03:14:00,57.2,52.7,29.75,WNW,302,0.0,0.0,85,0.00,,CLR,0.00,VWS V14.00,2014-09-20 08:14:00,
2014-09-20 03:19:00,57.1,53.0,29.75,WNW,300,0.0,0.0,86,0.00,,CLR,0.00,VWS V14.00,2014-09-20 08:19:00,
2014-09-20 03:24:00,56.9,52.8,29.75,NW,319,0.0,0.0,86,0.00,,CLR,0.00,VWS V14.00,2014-09-20 08:24:00,
2014-09-20 03:29:00,56.8,52.7,29.75,NW,310,0.0,0.0,86,0.00,,CLR,0.00,VWS V14.00,2014-09-20 08:29:00,
2014-09-20 03:34:00,56.6,52.5,29.75,NW,305,0.0,0.0,86,0.00,,CLR,0.00,VWS V14.00,2014-09-20 08:34:00,
2014-09-20 03:39:00,56.5,52.4,29.75,NW,306,0.0,0.0,86,0.00,,CLR,0.00,VWS V14.00,2014-09-20 08:39:00,
2014-09-20 03:44:00,56.5,52.7,29.76,NNW,347,0.0,0.0,87,0.00,,CLR,0.00,VWS V14.00,2014-09-20 08:44:00,
2014-09-20 03:49:00,56.5,52.7,29.76,NW,321,0.0,0.0,87,0.00,,CLR,0.00,VWS V14.00,2014-09-20 08:49:00,
2014-09-20 03:54:00,56.4,52.6,29.76,NW,321,0.0,0.0,87,0.00,,CLR,0.00,VWS V14.00,2014-09-20 08:54:00,
2014-09-20 03:59:00,56.3,52.5,29.76,NW,321,0.0,0.0,87,0.00,,CLR,0.00,VWS V14.00,2014-09-20 08:59:00,
2014-09-20 04:04:00,56.1,52.3,29.76,NW,320,0.0,0.0,87,0.00,,CLR,0.00,VWS V14.00,2014-09-20 09:04:00,
2014-09-20 04:09:00,56.0,52.5,29.77,NW,319,0.0,0.0,88,0.00,,CLR,0.00,VWS V14.00,2014-09-20 09:09:00,
2014-09-20 04:14:00,56.0,52.5,29.77,NW,318,0.0,0.0,88,0.00,,CLR,0.00,VWS V14.00,2014-09-20 09:14:00,
2014-09-20 04:19:00,55.9,52.4,29.77,NW,317,0.0,0.0,88,0.00,,CLR,0.00,VWS V14.00,2014-09-20 09:19:00,
2014-09-20 04:25:00,55.8,52.3,29.78,NW,317,0.0,0.0,88,0.00,,CLR,0.00,VWS V14.00,2014-09-20 09:25:00,
2014-09-20 04:30:00,55.7,52.2,29.78,NW,317,0.0,0.0,88,0.00,,CLR,0.00,VWS V14.00,2014-09-20 09:30:00,
2014-09-20 04:35:00,55.6,52.1,29.77,NW,317,0.0,0.0,88,0.00,,CLR,0.00,VWS V14.00,2014-09-20 09:35:00,
2014-09-20 04:40:00,55.4,51.9,29.78,NW,317,0.0,0.0,88,0.00,,CLR,0.00,VWS V14.00,2014-09-20 09:40:00,
2014-09-20 04:45:00,55.2,51.7,29.78,NW,317,0.0,0.0,88,0.00,,CLR,0.00,VWS V14.00,2014-09-20 09:45:00,
2014-09-20 04:50:00,55.1,51.6,29.78,NW,317,0.0,0.0,88,0.00,,CLR,0.00,VWS V14.00,2014-09-20 09:50:00,
2014-09-20 04:55:00,54.9,51.7,29.78,NW,317,0.0,0.0,89,0.00,,CLR,0.00,VWS V14.00,2014-09-20 09:55:00,
2014-09-20 05:00:00,54.7,51.5,29.79,NW,317,0.0,0.0,89,0.00,,CLR,0.00,VWS V14.00,2014-09-20 10:00:00,
2014-09-20 05:05:00,54.6,51.1,29.78,NW,317,0.0,0.0,88,0.00,,CLR,0.00,VWS V14.00,2014-09-20 10:05:00,
2014-09-20 05:10:00,54.4,50.9,29.79,NW,317,0.0,0.0,88,0.00,,CLR,0.00,VWS V14.00,2014-09-20 10:10:00,
2014-09-20 05:15:00,54.2,51.0,29.79,NW,317,0.0,0.0,89,0.00,,CLR,0.00,VWS V14.00,2014-09-20 10:15:00,
2014-09-20 05:20:00,54.1,50.9,29.79,NW,317,0.0,0.0,89,0.00,,CLR,0.00,VWS V14.00,2014-09-20 10:20:00,
2014-09-20 05:25:00,54.0,50.8,29.79,NW,317,0.0,0.0,89,0.00,,CLR,0.00,VWS V14.00,2014-09-20 10:25:00,
2014-09-20 05:30:00,53.8,50.6,29.80,NW,317,0.0,0.0,89,0.00,,CLR,0.00,VWS V14.00,2014-09-20 10:30:00,
2014-09-20 05:35:00,53.6,50.4,29.80,NW,317,0.0,0.0,89,0.00,,CLR,0.00,VWS V14.00,2014-09-20 10:35:00,
2014-09-20 05:40:00,53.3,50.2,29.80,NW,317,0.0,0.0,89,0.00,,CLR,0.00,VWS V14.00,2014-09-20 10:40:00,
2014-09-20 05:45:00,53.1,50.0,29.80,NW,317,0.0,0.0,89,0.00,,CLR,0.00,VWS V14.00,2014-09-20 10:45:00,
2014-09-20 05:50:00,52.8,49.7,29.80,NW,317,0.0,0.0,89,0.00,,CLR,0.00,VWS V14.00,2014-09-20 10:50:00,
2014-09-20 05:55:00,52.6,49.5,29.80,NW,317,0.0,0.0,89,0.00,,CLR,0.00,VWS V14.00,2014-09-20 10:55:00,
2014-09-20 06:00:00,52.3,49.2,29.81,NW,317,0.0,0.0,89,0.00,,CLR,0.00,VWS V14.00,2014-09-20 11:00:00,
2014-09-20 06:05:00,52.1,49.0,29.81,NW,317,0.0,0.0,89,0.00,,CLR,0.00,VWS V14.00,2014-09-20 11:05:00,
2014-09-20 06:10:00,52.0,48.9,29.81,NW,317,0.0,0.0,89,0.00,,CLR,0.00,VWS V14.00,2014-09-20 11:10:00,
2014-09-20 06:15:00,51.9,48.8,29.81,NW,317,0.0,0.0,89,0.00,,CLR,0.00,VWS V14.00,2014-09-20 11:15:00,
2014-09-20 06:20:00,51.8,48.7,29.81,NW,317,0.0,0.0,89,0.00,,CLR,0.00,VWS V14.00,2014-09-20 11:20:00,
2014-09-20 06:25:00,51.7,48.6,29.81,NW,317,0.0,0.0,89,0.00,,CLR,0.00,VWS V14.00,2014-09-20 11:25:00,
2014-09-20 06:30:00,51.5,48.7,29.81,NW,317,0.0,0.0,90,0.00,,CLR,0.00,VWS V14.00,2014-09-20 11:30:00,
2014-09-20 06:35:00,51.4,48.3,29.81,NW,317,0.0,0.0,89,0.00,,CLR,0.00,VWS V14.00,2014-09-20 11:35:00,
2014-09-20 06:40:00,51.2,48.4,29.81,NW,317,0.0,0.0,90,0.00,,CLR,0.00,VWS V14.00,2014-09-20 11:40:00,
2014-09-20 06:45:00,51.1,48.3,29.82,NW,317,0.0,0.0,90,0.00,,CLR,0.00,VWS V14.00,2014-09-20 11:45:00,
2014-09-20 06:50:00,50.9,48.1,29.82,NW,317,0.0,0.0,90,0.00,,CLR,0.00,VWS V14.00,2014-09-20 11:50:00,
2014-09-20 06:55:00,50.8,48.0,29.82,NW,317,0.0,0.0,90,0.00,,CLR,0.00,VWS V14.00,2014-09-20 11:55:00,
2014-09-20 07:00:00,50.8,48.0,29.82,NW,317,0.0,0.0,90,0.00,,CLR,0.00,VWS V14.00,2014-09-20 12:00:00,
2014-09-20 07:05:00,50.9,48.1,29.82,NW,317,0.0,0.0,90,0.00,,SCT013,0.00,VWS V14.00,2014-09-20 12:05:00,
2014-09-20 07:10:00,50.9,48.1,29.82,NW,317,0.0,0.0,90,0.00,,SCT013,0.00,VWS V14.00,2014-09-20 12:10:00,
2014-09-20 07:15:00,50.9,48.4,29.82,NW,317,0.0,0.0,91,0.00,,SCT013,0.00,VWS V14.00,2014-09-20 12:15:00,
2014-09-20 07:20:00,50.8,48.0,29.82,NW,317,0.0,0.0,90,0.00,,SCT013,0.00,VWS V14.00,2014-09-20 12:20:00,
2014-09-20 07:25:00,50.7,47.9,29.83,NW,317,0.0,0.0,90,0.00,,SCT013,0.00,VWS V14.00,2014-09-20 12:25:00,
2014-09-20 07:30:00,50.6,47.8,29.83,NW,317,0.0,0.0,90,0.00,,SCT013,0.00,VWS V14.00,2014-09-20 12:30:00,
2014-09-20 07:35:00,50.4,47.6,29.82,NW,317,0.0,0.0,90,0.00,,SCT013,0.00,VWS V14.00,2014-09-20 12:35:00,
2014-09-20 07:40:00,50.3,47.5,29.83,NW,317,0.0,0.0,90,0.00,,SCT013,0.00,VWS V14.00,2014-09-20 12:40:00,
2014-09-20 07:45:00,50.3,47.5,29.83,NW,317,0.0,0.0,90,0.00,,SCT013,0.00,VWS V14.00,2014-09-20 12:45:00,
2014-09-20 07:46:00,50.3,47.5,29.82,NW,317,0.0,0.0,90,0.00,,SCT013,0.00,VWS V14.00,2014-09-20 12:46:00,
2014-09-20 07:51:00,50.3,47.5,29.82,NW,317,0.0,0.0,90,0.00,,SCT013,0.00,VWS V14.00,2014-09-20 12:51:00,
2014-09-20 07:56:00,50.4,47.9,29.83,NW,317,0.0,0.0,91,0.00,,SCT013,0.00,VWS V14.00,2014-09-20 12:56:00,
2014-09-20 08:01:00,50.4,47.9,29.83,NW,317,0.0,0.0,91,0.00,,CLR,0.00,VWS V14.00,2014-09-20 13:01:00,
2014-09-20 08:06:00,50.4,47.9,29.83,NW,317,0.0,0.0,91,0.00,,CLR,0.00,VWS V14.00,2014-09-20 13:06:00,
2014-09-20 08:08:00,50.5,48.0,29.83,NW,317,0.0,0.0,91,0.00,,CLR,0.00,VWS V14.00,2014-09-20 13:08:00,
2014-09-20 08:13:00,50.8,48.3,29.82,NW,317,0.0,0.0,91,0.00,,CLR,0.00,VWS V14.00,2014-09-20 13:13:00,
2014-09-20 08:18:00,51.2,48.7,29.83,NW,317,0.0,0.0,91,0.00,,CLR,0.00,VWS V14.00,2014-09-20 13:18:00,
2014-09-20 08:23:00,51.5,49.0,29.83,NW,317,0.0,0.0,91,0.00,,CLR,0.00,VWS V14.00,2014-09-20 13:23:00,
2014-09-20 08:28:00,52.0,49.8,29.83,NW,317,0.0,0.0,92,0.00,,CLR,0.00,VWS V14.00,2014-09-20 13:28:00,
2014-09-20 08:33:00,52.4,50.2,29.83,NW,317,0.0,0.0,92,0.00,,CLR,0.00,VWS V14.00,2014-09-20 13:33:00,
2014-09-20 08:38:00,52.8,50.5,29.83,NW,317,0.0,0.0,92,0.00,,CLR,0.00,VWS V14.00,2014-09-20 13:38:00,
2014-09-20 08:43:00,53.1,50.8,29.83,NW,317,0.0,0.0,92,0.00,,CLR,0.00,VWS V14.00,2014-09-20 13:43:00,
2014-09-20 08:48:00,53.4,51.4,29.84,NW,317,0.0,0.0,93,0.00,,CLR,0.00,VWS V14.00,2014-09-20 13:48:00,
2014-09-20 08:53:00,53.7,51.4,29.84,NW,317,0.0,0.0,92,0.00,,CLR,0.00,VWS V14.00,2014-09-20 13:53:00,
2014-09-20 08:58:00,54.2,51.9,29.83,NW,317,0.0,0.0,92,0.00,,CLR,0.00,VWS V14.00,2014-09-20 13:58:00,
2014-09-20 09:03:00,54.6,52.3,29.84,NW,317,0.0,0.0,92,0.00,,CLR,0.00,VWS V14.00,2014-09-20 14:03:00,
2014-09-20 09:08:00,55.0,52.4,29.84,NW,317,0.0,0.0,91,0.00,,CLR,0.00,VWS V14.00,2014-09-20 14:08:00,
2014-09-20 09:13:00,55.5,52.9,29.83,NW,317,0.0,0.0,91,0.00,,CLR,0.00,VWS V14.00,2014-09-20 14:13:00,
2014-09-20 09:18:00,56.0,53.1,29.83,NW,317,0.0,0.0,90,0.00,,CLR,0.00,VWS V14.00,2014-09-20 14:18:00,
2014-09-20 09:23:00,56.4,53.2,29.83,NW,317,0.0,0.0,89,0.00,,CLR,0.00,VWS V14.00,2014-09-20 14:23:00,
2014-09-20 09:29:00,56.8,53.3,29.83,NW,317,0.0,0.0,88,0.00,,CLR,0.00,VWS V14.00,2014-09-20 14:29:00,
2014-09-20 09:33:00,57.2,53.7,29.83,NW,317,0.0,0.0,88,0.00,,CLR,0.00,VWS V14.00,2014-09-20 14:33:00,
2014-09-20 09:38:00,57.7,53.5,29.83,NW,317,0.0,0.0,86,0.00,,CLR,0.00,VWS V14.00,2014-09-20 14:38:00,
2014-09-20 09:44:00,58.1,53.9,29.83,NW,317,0.0,0.0,86,0.00,,CLR,0.00,VWS V14.00,2014-09-20 14:44:00,
2014-09-20 09:49:00,58.5,54.0,29.83,NW,317,0.0,0.0,85,0.00,,CLR,0.00,VWS V14.00,2014-09-20 14:49:00,
2014-09-20 09:54:00,58.9,53.8,29.83,NW,317,0.0,0.0,83,0.00,,CLR,0.00,VWS V14.00,2014-09-20 14:54:00,
2014-09-20 09:59:00,59.3,54.2,29.83,NW,317,0.0,0.0,83,0.00,,CLR,0.00,VWS V14.00,2014-09-20 14:59:00,
2014-09-20 10:04:00,59.7,54.2,29.83,NW,317,0.0,0.0,82,0.00,,CLR,0.00,VWS V14.00,2014-09-20 15:04:00,
2014-09-20 10:05:00,59.8,54.3,29.83,NW,317,0.0,0.0,82,0.00,,CLR,0.00,VWS V14.00,2014-09-20 15:05:00,
2014-09-20 10:10:00,60.1,54.3,29.83,NW,317,0.0,0.0,81,0.00,,CLR,0.00,VWS V14.00,2014-09-20 15:10:00,
2014-09-20 10:14:00,60.4,54.5,29.82,NW,317,0.0,0.0,81,0.00,,CLR,0.00,VWS V14.00,2014-09-20 15:14:00,
2014-09-20 10:19:00,60.9,54.7,29.82,NW,315,0.0,0.0,80,0.00,,CLR,0.00,VWS V14.00,2014-09-20 15:19:00,
2014-09-20 10:24:00,61.2,55.0,29.82,NW,314,0.0,0.0,80,0.00,,CLR,0.00,VWS V14.00,2014-09-20 15:24:00,
2014-09-20 10:29:00,61.5,54.9,29.82,WNW,300,0.0,0.0,79,0.00,,CLR,0.00,VWS V14.00,2014-09-20 15:29:00,
2014-09-20 10:34:00,61.9,55.3,29.82,West,279,0.0,0.0,79,0.00,,CLR,0.00,VWS V14.00,2014-09-20 15:34:00,
2014-09-20 10:39:00,62.3,55.4,29.82,West,268,0.0,0.0,78,0.00,,CLR,0.00,VWS V14.00,2014-09-20 15:39:00,
2014-09-20 10:44:00,62.5,55.2,29.82,West,268,0.0,0.0,77,0.00,,CLR,0.00,VWS V14.00,2014-09-20 15:44:00,
2014-09-20 10:49:00,63.0,55.7,29.82,West,263,0.0,0.0,77,0.00,,CLR,0.00,VWS V14.00,2014-09-20 15:49:00,
2014-09-20 10:54:00,63.6,55.9,29.82,WSW,258,0.0,0.0,76,0.00,,CLR,0.00,VWS V14.00,2014-09-20 15:54:00,
2014-09-20 10:59:00,64.2,56.1,29.81,SW,235,0.0,0.0,75,0.00,,CLR,0.00,VWS V14.00,2014-09-20 15:59:00,
2014-09-20 11:04:00,64.6,56.9,29.81,SSE,161,0.0,0.0,76,0.00,,CLR,0.00,VWS V14.00,2014-09-20 16:04:00,
2014-09-20 11:09:00,65.0,56.2,29.81,SSE,153,0.0,0.0,73,0.00,,CLR,0.00,VWS V14.00,2014-09-20 16:09:00,
2014-09-20 11:14:00,65.0,56.5,29.81,South,170,0.0,0.0,74,0.00,,CLR,0.00,VWS V14.00,2014-09-20 16:14:00,
2014-09-20 11:20:00,65.4,56.5,29.81,SW,232,0.0,0.0,73,0.00,,CLR,0.00,VWS V14.00,2014-09-20 16:20:00,
2014-09-20 11:25:00,65.8,56.9,29.81,WSW,245,0.0,0.0,73,0.00,,CLR,0.00,VWS V14.00,2014-09-20 16:25:00,
2014-09-20 11:30:00,66.3,57.0,29.81,South,185,0.0,0.0,72,0.00,,CLR,0.00,VWS V14.00,2014-09-20 16:30:00,
2014-09-20 11:35:00,66.8,57.9,29.80,South,185,0.0,0.0,73,0.00,,CLR,0.00,VWS V14.00,2014-09-20 16:35:00,
2014-09-20 11:40:00,67.4,58.1,29.80,South,185,0.0,0.0,72,0.00,,CLR,0.00,VWS V14.00,2014-09-20 16:40:00,
2014-09-20 11:45:00,67.6,57.9,29.79,South,187,0.0,2.0,71,0.00,,CLR,0.00,VWS V14.00,2014-09-20 16:45:00,
2014-09-20 11:50:00,67.8,57.7,29.79,SW,233,0.0,2.0,70,0.00,,CLR,0.00,VWS V14.00,2014-09-20 16:50:00,
2014-09-20 11:55:00,67.9,57.8,29.78,WSW,253,0.0,5.0,70,0.00,,CLR,0.00,VWS V14.00,2014-09-20 16:55:00,
2014-09-20 12:00:00,68.1,58.0,29.78,WSW,253,0.0,0.0,70,0.00,,CLR,0.00,VWS V14.00,2014-09-20 17:00:00,
2014-09-20 12:05:00,68.6,58.4,29.78,SW,215,0.0,0.0,70,0.00,,CLR,0.00,VWS V14.00,2014-09-20 17:05:00,
2014-09-20 12:10:00,69.2,59.4,29.78,WSW,258,0.0,0.0,71,0.00,,CLR,0.00,VWS V14.00,2014-09-20 17:10:00,
2014-09-20 12:15:00,69.9,59.3,29.77,South,190,0.0,4.0,69,0.00,,CLR,0.00,VWS V14.00,2014-09-20 17:15:00,
2014-09-20 12:20:00,70.1,59.1,29.77,South,190,0.0,0.0,68,0.00,,CLR,0.00,VWS V14.00,2014-09-20 17:20:00,
2014-09-20 12:25:00,70.3,58.8,29.77,SW,215,0.0,2.0,67,0.00,,CLR,0.00,VWS V14.00,2014-09-20 17:25:00,
2014-09-20 12:30:00,70.4,58.9,29.77,SW,235,0.0,0.0,67,0.00,,CLR,0.00,VWS V14.00,2014-09-20 17:30:00,
2014-09-20 12:35:00,70.7,59.6,29.76,SW,231,0.0,1.0,68,0.00,,CLR,0.00,VWS V14.00,2014-09-20 17:35:00,
2014-09-20 12:40:00,70.5,58.6,29.77,SW,229,0.0,0.0,66,0.00,,CLR,0.00,VWS V14.00,2014-09-20 17:40:00,
2014-09-20 12:45:00,70.0,58.5,29.77,SW,229,0.0,0.0,67,0.00,,CLR,0.00,VWS V14.00,2014-09-20 17:45:00,
2014-09-20 12:50:00,69.5,58.5,29.77,SW,236,0.0,0.0,68,0.00,,CLR,0.00,VWS V14.00,2014-09-20 17:50:00,
2014-09-20 12:55:00,69.1,57.7,29.77,South,188,0.0,0.0,67,0.00,,CLR,0.00,VWS V14.00,2014-09-20 17:55:00,
2014-09-20 13:00:00,68.9,57.9,29.77,SSW,207,0.0,0.0,68,0.00,,CLR,0.00,VWS V14.00,2014-09-20 18:00:00,
2014-09-20 13:05:00,68.8,58.2,29.78,WSW,241,0.0,0.0,69,0.00,,FEW120,0.00,VWS V14.00,2014-09-20 18:05:00,
2014-09-20 13:10:00,68.8,58.2,29.78,WSW,257,3.0,9.0,69,0.00,,FEW120,0.00,VWS V14.00,2014-09-20 18:10:00,
2014-09-20 13:15:00,68.7,58.1,29.78,West,261,0.0,9.0,69,0.00,,FEW120,0.00,VWS V14.00,2014-09-20 18:15:00,
2014-09-20 13:20:00,68.5,58.7,29.78,WSW,240,1.0,7.0,71,0.00,,FEW120,0.00,VWS V14.00,2014-09-20 18:20:00,
2014-09-20 13:25:00,68.1,59.1,29.78,West,264,9.0,9.0,73,0.00,,FEW120,0.00,VWS V14.00,2014-09-20 18:25:00,
2014-09-20 13:30:00,67.5,58.9,29.78,WSW,240,7.0,10.0,74,0.00,,FEW120,0.00,VWS V14.00,2014-09-20 18:30:00,
2014-09-20 13:35:00,66.8,59.0,29.79,SW,233,1.0,15.0,76,0.01,,FEW120,0.01,VWS V14.00,2014-09-20 18:35:00,
2014-09-20 13:40:00,65.5,57.7,29.80,West,277,13.0,16.0,76,0.02,,FEW120,0.02,VWS V14.00,2014-09-20 18:40:00,
2014-09-20 13:45:00,63.9,56.2,29.81,WNW,291,17.0,25.0,76,0.04,,FEW120,0.04,VWS V14.00,2014-09-20 18:45:00,
2014-09-20 13:50:00,62.3,54.7,29.81,WNW,284,0.0,11.0,76,0.04,,FEW120,0.04,VWS V14.00,2014-09-20 18:50:00,
2014-09-20 13:55:00,60.7,52.7,29.81,WNW,286,5.0,17.0,75,0.04,,FEW120,0.04,VWS V14.00,2014-09-20 18:55:00,
2014-09-20 14:00:00,59.5,51.9,29.81,WNW,295,8.0,18.0,76,0.04,,-RA,0.04,VWS V14.00,2014-09-20 19:00:00,
2014-09-20 14:05:00,58.7,51.9,29.81,West,280,12.0,18.0,78,0.05,,-RA,0.05,VWS V14.00,2014-09-20 19:05:00,
2014-09-20 14:10:00,57.9,51.8,29.80,WNW,291,9.0,10.0,80,0.06,,-RA,0.06,VWS V14.00,2014-09-20 19:10:00,
2014-09-20 14:15:00,57.4,52.0,29.81,WNW,291,7.0,16.0,82,0.07,,-RA,0.07,VWS V14.00,2014-09-20 19:15:00,
2014-09-20 14:20:00,57.1,52.0,29.80,West,270,0.0,6.0,83,0.07,,-RA,0.07,VWS V14.00,2014-09-20 19:20:00,
2014-09-20 14:25:00,57.0,52.2,29.80,WNW,287,0.0,11.0,84,0.07,,-RA,0.07,VWS V14.00,2014-09-20 19:25:00,
2014-09-20 14:30:00,57.2,52.7,29.80,WNW,303,3.0,13.0,85,0.07,,-RA,0.07,VWS V14.00,2014-09-20 19:30:00,
2014-09-20 14:31:00,57.3,52.8,29.80,WNW,300,8.0,13.0,85,0.07,,-RA,0.07,VWS V14.00,2014-09-20 19:31:00,
2014-09-20 14:36:00,57.7,53.5,29.80,WNW,289,0.0,14.0,86,0.07,,-RA,0.07,VWS V14.00,2014-09-20 19:36:00,
2014-09-20 14:41:00,58.3,53.5,29.80,West,271,0.0,12.0,84,0.05,,-RA,0.07,VWS V14.00,2014-09-20 19:41:00,
2014-09-20 14:46:00,58.7,53.6,29.80,West,280,10.0,16.0,83,0.05,,-RA,0.07,VWS V14.00,2014-09-20 19:46:00,
2014-09-20 14:51:00,59.4,54.2,29.81,NW,312,7.0,15.0,83,0.03,,-RA,0.07,VWS V14.00,2014-09-20 19:51:00,
2014-09-20 14:56:00,60.3,55.1,29.81,NW,311,2.0,15.0,83,0.03,,-RA,0.07,VWS V14.00,2014-09-20 19:56:00,
2014-09-20 15:01:00,61.0,54.8,29.81,WNW,283,8.0,21.0,80,0.03,,FEW022,0.07,VWS V14.00,2014-09-20 20:01:00,
2014-09-20 15:06:00,61.1,54.2,29.82,WNW,293,8.0,26.0,78,0.03,,FEW022,0.07,VWS V14.00,2014-09-20 20:06:00,
2014-09-20 15:11:00,61.4,54.1,29.82,WNW,286,10.0,20.0,77,0.01,,FEW022,0.07,VWS V14.00,2014-09-20 20:11:00,
2014-09-20 15:16:00,61.6,54.0,29.82,NNW,329,8.0,22.0,76,0.01,,FEW022,0.07,VWS V14.00,2014-09-20 20:16:00,
2014-09-20 15:21:00,61.4,53.4,29.83,WNW,296,16.0,23.0,75,0.00,,FEW022,0.07,VWS V14.00,2014-09-20 20:21:00,
2014-09-20 15:26:00,61.3,53.7,29.83,NW,305,12.0,23.0,76,0.00,,FEW022,0.07,VWS V14.00,2014-09-20 20:26:00,
2014-09-20 15:31:00,61.5,54.2,29.83,NW,305,6.0,16.0,77,0.00,,FEW022,0.07,VWS V14.00,2014-09-20 20:31:00,
2014-09-20 15:36:00,62.1,54.5,29.83,WNW,300,5.0,16.0,76,0.00,,FEW022,0.07,VWS V14.00,2014-09-20 20:36:00,
2014-09-20 15:41:00,62.7,54.7,29.83,NNW,342,4.0,12.0,75,0.00,,FEW022,0.07,VWS V14.00,2014-09-20 20:41:00,
2014-09-20 15:46:00,62.8,54.0,29.83,NNW,346,13.0,17.0,73,0.00,,FEW022,0.07,VWS V14.00,2014-09-20 20:46:00,
2014-09-20 15:51:00,62.7,53.5,29.84,NW,312,14.0,23.0,72,0.00,,FEW022,0.07,VWS V14.00,2014-09-20 20:51:00,
2014-09-20 15:56:00,63.1,53.6,29.83,WNW,302,25.0,25.0,71,0.00,,FEW022,0.07,VWS V14.00,2014-09-20 20:56:00,
2014-09-20 16:01:00,63.7,53.3,29.84,NW,318,6.0,18.0,69,0.00,,-RA,0.07,VWS V14.00,2014-09-20 21:01:00,
2014-09-20 16:06:00,64.0,52.8,29.84,WNW,294,8.0,21.0,67,0.00,,-RA,0.07,VWS V14.00,2014-09-20 21:06:00,
2014-09-20 16:11:00,64.3,53.1,29.84,WNW,297,14.0,23.0,67,0.00,,-RA,0.07,VWS V14.00,2014-09-20 21:11:00,
2014-09-20 16:16:00,64.6,53.0,29.84,WNW,295,6.0,23.0,66,0.00,,-RA,0.07,VWS V14.00,2014-09-20 21:16:00,